Wind_Speed
7 6 6 5 6 6 5 4 4 4 6 6 6 5 4 5 4 4 5 4 5 8 12 14 15 17 18 18 19 20 19 19 18 18 19 19 19 20 19 18 19 21 23 23 23 23 24 23 22 21 19 18 17 17 18 19 20 21 21 21 21 18 16 15 13 12 12 11 10 9 8 8 8 9 9 9 9 9 9 8 8 8 6 7 9
13 12 10 8 8 8 7 7 5 3 5 8 7 5 3 4 4 4 6 5 6 7 10 12 12 12 13 14 16 17 18 18 18 18 19 20 20 20 19 19 20 22 23 23 25 25 25 24 24 23 22 21 20 18 18 18 19 19 20 20 20 19 17 16 16 15 14 12 11 9 8 8 9 9 9 10 10 10 10 10 9 10 9 8 9
16 14 12 11 10 10 9 8 6 5 5 5 3 1 0 2 3 5 6 6 6 7 8 9 9 9 9 10 11 13 15 16 17 17 19 19 19 18 18 20 22 24 24 25 27 26 25 26 26 26 25 23 21 20 20 20 19 19 19 19 18 18 17 16 17 17 16 13 12 11 9 9 9 10 11 10 9 10 11 11 12 11 10 10 10
17 15 13 12 11 10 9 8 7 5 4 3 2 1 1 3 5 5 5 6 6 6 6 6 6 7 8 8 9 10 12 14 15 17 18 19 19 19 19 20 21 23 25 27 27 26 27 27 27 28 28 26 23 22 22 21 20 20 20 19 18 18 17 17 18 19 18 16 14 12 10 10 10 10 11 10 9 10 11 11 13 12 12 11 10
18 17 15 13 12 11 9 8 7 5 4 3 2 2 2 1 3 3 5 6 5 5 4 4 5 6 7 8 8 8 10 12 13 14 16 17 17 18 18 20 20 22 25 27 28 28 28 28 29 30 30 29 25 23 23 22 22 21 21 20 19 19 17 18 19 19 20 19 15 10 9 10 9 8 9 9 9 10 9 11 12 12 12 12 11
18 17 16 15 13 11 10 9 8 7 7 6 5 5 5 3 3 2 4 5 4 3 3 3 5 6 7 9 8 9 11 11 11 11 13 14 15 16 17 19 20 21 23 25 28 29 28 28 30 30 29 29 27 25 25 24 23 23 22 21 21 20 18 18 20 20 21 20 16 13 11 9 6 7 9 8 9 10 10 12 12 12 13 13 11
17 17 17 15 14 12 11 8 6 7 7 6 6 6 6 5 5 4 4 4 4 3 3 3 4 6 7 8 9 9 10 11 11 12 12 14 16 16 17 19 20 20 22 24 27 29 28 28 29 28 28 29 28 26 26 25 23 23 23 21 21 21 20 19 19 20 20 18 17 17 15 11 7 7 8 7 8 10 12 13 13 12 14 14 13
16 17 17 15 13 11 9 6 4 5 6 7 5 6 6 6 5 5 5 5 5 6 5 4 5 6 6 7 7 7 9 11 13 13 14 15 16 15 15 17 18 19 22 24 25 27 27 27 27 27 27 27 28 28 27 26 24 23 22 22 21 20 21 22 20 20 20 18 18 19 18 14 10 9 9 8 8 9 11 13 12 12 14 15 14
17 18 17 15 13 11 8 5 5 6 7 8 8 7 6 6 6 6 7 6 6 8 8 6 5 4 5 6 7 7 7 9 10 12 13 13 14 14 13 16 17 18 21 21 21 23 25 25 24 25 25 25 28 29 29 27 25 23 22 22 21 21 22 23 22 21 20 18 18 18 16 14 11 10 9 8 8 9 10 13 14 14 15 15 16
16 17 17 16 14 12 10 7 7 8 9 10 10 9 8 6 5 6 6 6 6 7 8 8 6 5 5 6 7 7 8 8 9 10 11 12 13 13 13 14 14 15 17 17 17 19 23 26 23 20 20 22 26 29 29 28 25 23 22 21 21 22 23 24 24 22 21 19 18 16 16 14 13 12 11 9 9 9 9 11 15 15 15 15 16
13 14 15 14 13 12 11 10 10 10 10 11 11 11 10 9 7 6 7 7 7 7 7 7 7 7 6 6 7 8 10 10 11 10 10 11 13 12 12 11 10 10 11 11 13 14 18 23 21 16 16 20 24 27 27 27 25 24 23 22 22 23 24 24 24 23 21 18 16 16 15 15 14 13 12 11 10 10 9 10 13 14 13 13 15
13 13 13 13 13 13 13 12 12 11 11 11 12 12 11 11 10 10 10 10 10 10 9 9 9 8 7 8 9 10 11 12 12 11 9 10 12 12 11 10 8 7 8 8 9 11 13 16 17 17 18 21 24 26 26 26 26 25 25 25 24 24 24 24 23 23 22 19 17 16 15 15 14 14 12 11 10 10 9 10 11 12 12 12 12
13 13 13 14 15 15 15 15 14 13 14 14 13 12 12 12 13 12 11 11 11 11 11 11 10 10 9 10 11 12 12 11 10 10 9 9 11 11 11 10 8 8 8 8 9 10 12 14 16 18 20 20 22 24 26 26 25 26 26 27 26 24 25 25 23 23 22 20 18 17 17 16 15 14 12 11 11 11 10 10 11 12 13 12 11
12 13 14 16 16 15 15 15 15 14 15 14 14 14 13 13 15 14 13 13 12 11 10 10 10 10 10 11 12 12 12 11 10 9 9 9 10 11 11 9 8 7 8 9 10 11 13 14 15 17 19 20 21 23 25 26 26 26 26 26 25 24 25 25 23 22 22 21 20 19 17 17 17 16 14 12 12 11 11 11 11 12 12 12 11
11 12 14 15 15 14 13 14 14 14 13 12 12 13 12 13 15 16 15 14 14 12 11 10 8 9 10 11 12 11 11 11 11 10 9 10 11 11 11 9 8 8 8 10 11 12 14 15 16 17 18 20 21 22 25 26 26 26 26 25 24 25 25 24 23 24 23 22 21 18 16 17 18 17 16 15 14 12 12 12 12 13 12 12 11
10 11 13 14 13 12 12 12 13 12 12 12 12 12 12 12 13 14 14 14 13 13 14 13 11 11 11 10 10 9 8 9 10 10 10 10 11 11 11 10 9 8 10 11 11 12 14 15 17 18 18 19 19 21 24 26 26 26 25 24 23 25 25 23 23 24 22 22 21 19 17 17 18 18 17 16 15 13 12 12 13 14 13 13 12
10 10 11 12 12 12 12 11 12 12 11 11 11 12 12 12 11 12 12 12 11 12 14 14 13 14 13 11 9 7 7 8 9 10 10 10 11 11 12 11 9 9 10 11 12 12 14 16 18 19 19 19 19 21 24 26 27 27 25 23 22 24 25 25 26 25 22 22 22 21 20 19 19 21 21 19 17 15 14 14 14 14 13 13 12
9 9 10 11 11 12 12 11 12 12 11 11 11 11 11 12 12 12 11 10 10 10 11 12 13 14 14 12 9 7 7 8 9 10 10 11 11 12 12 11 9 9 9 11 12 13 14 16 17 19 20 21 21 23 25 26 27 28 27 24 22 24 26 27 27 25 23 22 21 20 21 21 21 23 24 23 21 19 16 15 15 14 13 13 12
8 9 9 11 12 12 12 12 12 11 11 11 11 10 11 13 14 13 13 12 11 9 9 8 9 10 11 11 10 9 8 8 9 11 11 11 11 11 12 12 11 10 10 11 12 13 15 16 17 18 20 21 22 24 25 26 26 27 27 26 25 25 27 27 27 25 24 23 22 21 20 20 21 22 23 24 25 22 19 16 15 15 14 14 13
9 9 10 11 12 12 12 12 12 11 11 11 10 10 11 13 13 13 14 13 12 10 10 9 8 8 10 10 9 9 10 10 11 11 11 12 13 13 12 12 12 12 12 12 13 14 14 16 17 18 21 22 22 24 26 26 26 26 26 27 27 27 26 26 26 26 24 22 24 24 22 22 23 22 20 21 23 23 20 16 15 15 14 14 14
9 9 10 11 11 11 12 11 11 11 11 11 11 11 12 12 12 13 13 13 12 12 12 11 10 10 10 10 10 9 10 11 12 12 11 12 13 13 14 14 13 13 13 13 14 15 15 16 17 18 21 22 22 24 26 27 26 26 27 27 28 28 27 26 26 26 25 25 25 24 24 25 25 23 20 19 20 20 18 17 16 15 15 15 15
9 9 10 11 11 11 11 12 12 12 12 12 12 12 13 14 13 13 14 14 14 14 14 12 12 12 11 11 11 11 11 11 11 12 12 13 12 13 15 15 14 13 14 14 15 15 16 16 17 19 20 21 22 24 25 26 26 26 28 28 28 29 28 27 25 25 25 25 24 23 26 26 24 22 20 19 18 18 18 18 17 16 16 16 15
9 10 11 11 11 11 12 13 14 14 14 14 14 14 15 15 15 14 15 16 15 14 14 14 13 14 13 13 12 11 11 11 11 11 11 13 14 14 14 15 16 15 15 15 15 14 16 17 17 19 21 22 23 24 25 25 24 25 26 27 27 28 28 27 25 25 24 22 21 23 26 25 22 21 20 19 18 18 18 18 17 17 16 15 15
13 12 12 12 12 13 14 15 15 14 14 16 17 17 17 17 16 16 16 16 15 15 15 15 15 16 15 15 14 12 11 11 12 12 11 12 13 14 15 15 17 18 17 17 16 15 16 17 17 19 22 23 24 25 26 25 24 24 25 26 27 27 29 28 27 26 25 23 23 25 26 24 23 22 22 20 19 19 19 19 18 17 17 16 15
15 16 15 14 15 16 16 15 14 13 14 16 17 18 18 18 19 19 18 15 14 15 16 15 16 17 17 16 16 15 12 11 11 12 12 12 13 14 16 16 18 19 18 17 17 17 17 17 18 20 22 23 25 26 26 26 24 24 25 26 26 28 30 29 27 26 25 22 23 25 25 23 23 22 22 21 20 20 20 19 18 18 17 16 16
15 16 16 15 16 16 16 15 14 14 16 17 18 19 19 20 21 22 21 16 14 15 15 14 15 16 16 16 17 17 16 14 12 12 12 12 13 14 16 17 18 18 16 16 17 18 18 18 19 20 22 23 24 25 26 27 26 25 26 26 26 27 29 27 25 25 23 21 22 23 23 23 22 22 22 22 21 21 20 19 19 18 17 17 17
15 15 15 15 15 15 15 15 15 18 19 18 19 19 20 21 21 22 22 18 14 14 15 14 14 15 16 16 17 18 19 18 15 14 13 13 13 14 15 17 18 18 17 16 17 18 19 20 20 20 21 21 22 25 26 27 27 26 25 25 27 27 27 26 26 25 23 22 22 21 21 23 23 22 22 22 21 21 21 20 19 18 18 18 17
16 16 15 15 14 13 13 14 15 17 18 17 18 18 19 20 20 20 21 19 15 14 15 15 15 15 16 16 16 17 18 19 17 15 14 14 14 14 15 15 16 17 17 17 18 18 20 22 21 21 21 21 21 23 26 27 28 26 24 25 27 27 26 26 25 23 21 21 20 20 20 21 22 23 23 22 21 22 21 20 20 20 20 19 19
16 15 15 14 13 12 13 13 14 15 16 16 17 18 18 19 19 19 20 20 17 15 15 16 15 15 16 16 17 17 17 19 19 16 14 14 14 14 15 14 14 15 16 16 17 17 19 21 21 20 22 23 22 21 25 29 28 26 25 26 27 27 27 25 24 23 23 22 22 23 23 22 22 24 24 23 23 22 21 20 21 22 22 22 22
15 13 12 12 12 12 12 12 13 14 15 15 15 16 17 19 19 19 20 21 20 17 16 17 16 16 17 16 17 18 17 18 20 19 17 14 14 14 14 13 13 14 15 16 17 18 18 19 21 21 22 24 24 23 25 28 29 27 26 26 28 29 28 25 23 23 24 24 23 24 24 24 24 23 22 23 23 23 21 21 21 22 22 22 23
13 11 10 11 11 12 12 12 13 13 14 14 14 15 16 18 19 20 20 21 21 19 17 17 17 17 18 17 18 19 19 18 19 21 20 17 15 15 14 13 12 13 15 16 18 19 19 19 20 20 21 23 24 25 26 26 27 27 27 28 31 30 27 24 22 23 23 23 23 23 23 24 24 22 22 22 23 23 23 23 22 21 20 21 21
12 11 11 11 11 12 12 12 12 13 14 14 14 15 16 17 18 20 20 19 20 19 18 17 18 18 18 18 19 19 19 19 19 21 22 21 19 17 15 13 12 13 14 16 17 18 19 20 20 20 20 22 23 25 27 26 26 27 28 30 31 29 27 25 23 23 22 22 23 22 22 23 23 22 22 21 22 22 22 22 22 21 21 21 21
12 11 11 11 11 11 12 12 12 13 13 14 14 14 16 17 17 18 18 18 19 19 18 18 18 18 18 18 20 20 20 20 21 22 23 25 24 21 18 15 13 12 13 15 16 16 17 18 19 19 19 20 21 24 27 27 27 27 29 32 31 27 25 26 25 23 21 20 20 20 21 23 22 21 22 21 21 20 20 20 20 19 20 20 21
12 12 12 11 11 11 11 12 12 13 13 13 14 14 16 16 17 18 18 18 19 18 18 18 18 18 19 19 20 21 20 21 24 23 24 27 29 27 24 20 17 14 13 13 15 15 15 15 16 17 17 17 21 25 28 29 29 29 30 33 31 25 23 25 25 23 22 20 20 20 22 23 21 21 22 21 19 18 17 17 17 18 20 21 21
12 12 11 11 11 11 11 12 12 13 13 13 14 15 16 16 17 18 19 18 18 19 18 18 18 19 19 19 20 20 20 22 25 26 27 30 32 31 29 27 24 21 17 15 14 14 14 14 16 18 19 19 21 24 27 30 31 31 31 32 29 26 25 26 25 23 22 21 22 23 23 22 21 21 20 18 16 16 16 17 18 20 21 21 21
12 11 11 11 11 11 12 12 12 13 13 14 14 14 15 16 17 18 20 19 18 19 19 19 19 19 20 21 21 20 20 22 25 27 28 31 33 33 33 31 30 27 24 21 17 14 13 14 15 18 20 21 21 22 25 30 31 31 31 31 29 28 28 26 25 24 22 22 23 23 21 20 21 21 18 16 15 15 16 17 19 20 21 20 19
11 11 11 11 11 12 12 12 13 14 14 14 14 14 15 16 17 18 20 20 20 20 20 20 19 19 20 21 22 21 21 22 24 25 26 30 32 33 33 32 30 28 26 24 21 18 15 13 14 16 18 21 21 21 22 27 30 30 32 33 32 30 29 27 25 24 23 23 23 22 21 21 22 19 16 14 13 14 15 17 18 19 19 19 20
11 11 11 11 12 12 12 13 14 14 14 14 14 15 15 16 17 18 19 20 21 22 21 21 20 19 20 20 20 20 20 21 21 21 23 26 29 31 31 31 29 26 24 21 19 18 17 15 14 14 15 18 21 21 20 24 28 30 33 35 33 32 31 28 25 24 23 23 23 23 24 24 21 18 15 14 12 12 14 16 17 18 19 19 20
10 10 11 11 11 12 12 13 14 14 15 14 14 14 15 16 17 17 18 19 21 22 22 22 21 20 20 19 18 18 19 19 19 19 19 21 23 26 28 29 28 27 24 19 16 15 15 14 13 13 13 15 19 20 20 23 27 31 35 36 34 33 31 27 25 25 25 24 25 26 26 24 21 18 16 15 12 12 14 15 16 16 17 18 18
11 11 11 11 11 11 12 12 13 13 13 14 14 14 15 16 17 18 19 19 19 20 20 21 21 21 21 20 19 18 18 18 18 18 17 18 19 22 24 25 26 27 26 23 20 17 15 13 11 11 11 11 14 17 19 21 25 30 33 32 31 31 28 25 25 26 25 25 26 27 25 23 21 19 17 16 14 13 14 14 14 14 15 15 16
11 11 10 10 10 10 11 12 12 12 13 13 14 14 15 16 17 18 19 18 18 18 19 19 20 21 22 22 21 19 18 18 18 19 18 17 17 19 20 21 22 23 24 25 24 23 21 18 14 10 8 7 8 11 13 16 21 27 29 27 26 26 24 24 25 25 23 23 25 26 25 25 23 21 19 17 15 14 14 14 14 14 12 12 14
10 10 9 8 9 10 10 11 12 12 13 13 14 15 16 17 17 18 18 17 17 18 18 18 19 20 20 22 22 21 20 20 20 20 19 18 16 16 18 19 19 19 21 22 24 25 25 24 22 18 14 10 6 3 4 7 13 20 22 22 22 22 22 21 21 20 20 20 23 26 25 24 23 22 20 18 17 16 16 15 14 14 12 12 14
9 9 9 9 9 9 10 11 11 12 14 14 15 16 16 17 17 17 16 16 17 18 18 18 19 20 20 20 21 21 21 21 21 21 21 20 19 17 16 18 19 19 19 19 20 22 23 25 25 23 22 20 16 10 7 4 7 12 14 14 14 13 14 15 16 18 20 21 24 25 24 23 23 23 21 19 19 18 16 14 13 12 12 13 15
10 9 9 9 9 9 9 10 11 12 13 14 15 16 16 16 17 16 16 16 16 17 18 18 19 19 19 19 19 20 21 21 21 22 22 22 21 19 17 17 18 19 19 19 19 19 20 22 24 24 24 24 22 20 17 14 11 12 12 9 7 7 8 10 14 18 20 22 24 24 23 23 23 22 21 21 21 19 17 15 15 15 15 16 16
9 9 8 8 8 9 9 9 10 11 12 12 13 15 15 16 16 16 16 16 15 16 17 17 18 18 19 19 18 18 19 20 21 21 21 22 22 22 20 19 19 19 19 19 19 19 18 18 19 21 22 23 23 23 21 20 19 16 11 8 6 6 6 8 12 15 17 18 20 21 22 22 22 20 19 19 19 19 18 18 18 19 19 19 18
8 7 7 7 7 8 8 9 10 10 10 11 12 13 15 15 15 15 16 16 15 16 16 17 17 18 18 18 19 18 18 19 20 21 21 21 21 22 21 20 19 20 20 19 19 19 18 18 17 17 17 17 18 20 20 20 20 18 14 11 9 10 10 10 12 15 16 16 16 17 19 20 19 18 17 15 14 15 15 16 17 16 16 17 16
7 6 6 6 7 7 8 8 9 10 10 10 10 12 13 14 15 15 15 15 15 16 16 16 17 18 17 18 19 19 18 18 19 22 23 23 21 20 21 22 22 21 20 19 19 19 19 19 18 16 15 14 14 16 17 18 18 18 18 17 16 16 16 16 17 18 19 19 19 18 18 19 18 17 16 15 15 15 14 14 14 14 13 12 11
6 6 6 6 6 7 7 8 9 9 10 10 10 11 11 13 14 15 15 15 15 16 17 16 16 17 18 18 18 19 18 17 17 19 22 25 25 21 19 21 24 24 22 20 19 18 19 20 19 17 16 15 15 16 16 16 15 15 16 16 17 18 18 18 18 17 17 17 18 19 19 20 20 20 21 21 20 19 18 15 13 12 12 12 11
7 7 7 7 7 7 8 8 9 9 10 10 11 11 11 12 13 15 15 15 15 15 16 16 16 17 18 18 18 18 18 17 17 17 19 22 24 23 21 20 21 22 22 22 20 19 18 18 20 21 21 19 18 18 16 14 12 11 11 11 12 13 13 14 14 13 11 11 11 13 15 16 17 18 20 21 21 21 21 19 15 13 13 13 12
8 8 8 8 8 8 8 8 9 10 10 11 11 11 11 11 12 14 15 15 15 15 16 16 16 16 17 18 19 19 18 17 17 17 17 18 19 21 21 21 20 20 20 20 20 20 18 16 16 19 21 22 21 20 18 16 16 16 15 14 14 13 12 11 10 8 7 6 7 8 9 11 12 13 15 16 17 18 19 18 16 14 13 13 12
8 9 9 9 9 9 9 9 9 9 10 11 12 11 11 11 11 12 14 15 15 15 16 16 15 15 16 17 18 19 19 18 17 17 16 16 16 17 19 20 20 20 19 18 18 18 17 16 14 14 16 18 19 19 18 19 19 19 19 19 18 17 16 16 14 12 11 11 11 10 10 11 11 12 13 14 15 15 16 16 15 14 13 12 12
Wind_Direction
82 68 56 64 82 84 77 64 48 23 31 44 43 38 5 341 330 313 316 293 256 246 245 243 236 236 240 239 238 242 246 252 255 256 256 255 256 256 252 247 247 249 249 244 238 238 237 234 231 229 225 222 218 211 210 209 213 221 220 216 216 215 215 217 217 217 216 213 212 215 221 227 226 222 224 223 220 218 208 202 210 202 190 202 200
83 79 71 75 78 69 60 57 59 55 52 51 38 24 358 330 313 293 287 261 248 256 255 253 247 247 253 251 246 246 248 251 253 256 258 259 259 258 254 251 252 253 254 248 239 235 235 235 235 231 224 219 217 210 206 206 208 217 217 215 216 215 218 219 219 218 212 206 202 205 214 220 226 225 226 228 226 223 215 206 210 206 194 200 202
81 80 76 77 72 64 65 62 59 67 65 59 44 40 149 258 261 260 272 278 277 263 254 260 260 261 266 262 254 251 252 252 252 255 259 263 265 263 260 261 259 256 255 252 245 238 234 233 234 234 226 220 218 214 211 208 207 212 213 213 212 214 218 217 216 215 208 204 204 207 213 215 224 227 224 226 224 226 225 214 211 209 198 198 200
72 71 75 85 82 69 67 68 71 85 90 100 154 132 116 222 236 251 268 274 279 270 262 267 269 270 269 263 257 251 251 253 254 256 259 263 266 268 268 269 268 261 257 253 249 242 237 234 233 233 229 223 218 215 213 210 209 210 210 210 209 210 214 215 217 217 208 201 202 206 207 210 221 219 212 220 223 225 231 223 216 213 205 201 199
65 65 73 87 86 70 69 89 100 99 88 84 84 45 32 286 248 271 281 277 280 283 284 288 292 296 289 280 273 262 259 259 259 262 266 268 273 279 279 276 276 270 261 254 250 245 241 238 235 234 231 226 220 216 215 214 212 213 212 212 212 211 213 218 222 220 214 208 205 202 197 208 222 205 192 208 219 221 226 222 219 216 211 207 203
70 73 81 93 98 90 91 101 92 62 45 37 24 18 14 5 360 330 299 293 295 293 275 272 289 299 294 288 287 282 278 276 276 277 278 278 281 288 290 285 279 272 265 258 254 250 246 243 241 238 234 230 225 221 220 218 217 219 219 217 218 215 214 222 224 219 217 215 211 208 202 201 207 195 190 197 207 216 221 219 218 215 213 211 207
68 75 82 93 102 105 103 101 83 50 31 19 13 14 9 2 359 353 335 318 313 313 293 277 288 301 304 300 295 290 287 287 288 287 284 283 284 290 293 288 279 271 267 263 257 253 249 244 241 239 236 233 232 228 224 222 220 221 221 219 220 218 216 222 223 220 218 215 214 217 215 210 201 198 203 196 197 211 220 223 221 212 211 211 208
61 69 75 80 85 92 96 88 54 17 2 358 358 4 8 6 359 350 344 334 325 318 310 300 293 298 309 308 303 301 296 290 286 285 284 285 291 296 291 284 279 272 267 264 258 252 248 242 235 237 240 237 235 232 227 223 221 220 220 218 219 219 220 222 223 225 222 214 217 221 220 222 219 209 211 209 205 210 213 217 217 211 209 209 206
62 66 67 68 69 70 72 60 23 360 357 3 359 351 350 353 359 354 346 344 335 322 319 320 307 299 304 297 293 301 300 293 288 288 290 291 295 297 289 284 283 275 267 262 255 247 242 239 231 228 233 236 236 233 228 223 220 220 221 219 220 220 221 223 224 228 225 213 212 216 215 219 221 218 217 213 214 217 209 204 205 205 207 210 209
58 60 61 63 61 56 53 43 26 19 18 16 9 2 352 344 350 354 348 349 346 335 331 330 316 298 289 283 287 296 295 292 289 289 293 293 292 290 285 286 285 279 270 255 248 244 236 237 235 220 216 229 237 234 228 223 219 221 224 223 223 223 223 224 221 220 221 214 207 208 208 210 211 215 218 213 214 223 218 204 202 203 205 208 209
52 52 53 54 54 49 45 39 34 30 23 15 9 8 7 3 358 350 342 340 340 335 327 321 311 297 288 287 291 293 292 292 289 286 287 287 288 286 280 280 280 281 275 251 243 245 235 238 244 232 216 225 235 235 229 222 217 220 226 226 227 228 226 225 219 216 219 215 205 204 207 208 208 211 214 214 214 219 220 209 203 205 206 207 208
50 48 46 47 47 42 38 37 35 30 22 14 6 360 359 1 358 350 346 345 342 338 331 326 320 314 309 303 300 301 300 295 287 283 280 279 281 281 274 272 275 274 269 260 253 251 243 240 243 239 230 228 234 237 232 225 219 220 225 228 230 229 227 226 223 220 220 214 206 206 207 207 210 214 213 212 214 216 216 209 201 200 202 204 207
47 46 46 47 45 39 36 36 34 29 21 16 12 6 359 356 354 349 349 351 348 342 335 327 319 314 309 304 303 306 306 299 287 280 278 274 272 272 269 270 276 266 255 263 265 257 252 247 242 239 238 237 238 237 233 228 223 222 225 229 231 228 225 226 225 224 222 216 208 208 208 207 210 213 212 211 213 213 212 210 202 196 196 195 199
46 48 49 50 47 41 38 34 30 25 18 15 16 13 7 3 1 358 357 359 358 352 341 328 314 305 300 299 299 300 305 304 294 284 282 280 270 263 261 260 268 267 259 264 266 255 248 244 241 238 237 239 240 234 227 223 223 225 228 231 231 228 224 223 223 224 223 217 211 207 206 209 210 209 210 211 212 212 211 207 197 192 195 194 192
48 51 54 55 49 40 33 27 22 18 13 13 13 10 6 7 6 3 2 1 3 4 359 352 338 318 302 294 293 298 306 307 300 295 292 284 271 262 257 250 252 260 260 263 263 256 248 241 236 235 233 233 235 231 223 220 224 226 230 234 231 228 227 222 221 224 224 222 217 208 205 210 211 209 210 212 212 212 209 206 197 190 192 195 191
50 51 54 54 49 40 32 23 17 13 7 4 6 8 7 6 4 4 2 357 355 359 358 355 351 343 330 314 307 306 306 301 296 296 290 278 270 264 259 251 250 255 255 258 262 260 258 250 239 233 233 231 231 229 221 220 225 227 232 233 227 228 230 226 225 224 223 223 219 209 207 211 211 210 211 211 213 213 210 207 203 197 194 194 193
53 53 53 49 43 37 31 21 15 12 6 3 6 11 12 11 7 3 1 355 350 348 346 343 341 340 339 333 321 307 301 295 289 283 275 270 268 263 258 252 250 254 257 259 261 259 257 254 245 235 230 228 227 225 221 222 226 230 234 233 228 231 232 229 229 226 222 226 223 213 210 211 214 214 212 210 210 210 211 209 206 207 204 199 198
55 55 52 47 39 32 26 21 17 13 9 10 10 12 20 27 26 19 11 5 359 350 342 339 338 336 335 330 318 305 301 299 290 283 275 270 269 268 266 261 252 250 258 262 261 258 253 250 247 237 229 226 225 224 224 225 229 233 237 237 236 236 233 231 231 226 222 225 225 220 215 215 222 222 215 213 211 207 210 209 207 210 212 210 209
51 48 45 42 38 30 27 23 19 17 15 15 12 14 31 43 42 36 29 22 18 12 1 351 341 332 326 322 315 305 298 294 291 290 285 278 275 275 273 270 263 255 258 263 261 259 255 250 246 237 229 226 225 225 226 226 230 233 236 238 237 236 234 234 233 228 223 222 221 222 219 217 222 222 215 213 215 213 210 209 209 210 213 215 215
49 46 44 43 39 33 30 25 21 19 16 14 11 14 33 48 48 42 36 29 23 21 21 17 1 340 327 321 315 304 294 289 288 291 292 290 286 283 277 273 271 266 263 263 258 255 254 253 249 240 232 228 225 225 224 224 226 230 234 237 236 234 235 235 232 228 225 223 223 224 222 216 217 220 217 213 215 215 210 207 211 212 212 213 211
51 50 47 43 40 36 31 26 21 18 14 13 10 10 19 32 39 38 35 29 23 22 23 21 15 1 343 332 323 313 303 293 287 286 285 286 286 287 283 277 272 269 267 263 257 254 252 252 251 245 236 230 226 223 221 221 223 227 230 234 234 233 233 233 233 229 223 223 226 226 223 220 217 217 217 214 213 214 211 208 211 212 212 212 208
55 53 49 44 40 36 30 26 23 19 16 14 13 12 11 15 22 24 23 20 17 17 14 10 14 13 2 349 336 324 314 304 296 289 281 275 275 277 279 279 275 270 267 264 261 258 256 252 248 244 236 230 227 222 220 220 222 225 229 231 234 234 232 233 234 231 225 222 223 223 221 221 217 212 212 213 213 214 212 211 212 212 212 212 209
59 55 49 46 41 36 32 28 24 21 16 13 16 18 15 14 17 15 11 10 8 8 6 4 10 13 8 3 355 338 321 310 302 296 286 277 271 268 268 273 274 272 268 264 259 256 257 255 249 243 235 229 226 221 220 221 222 226 230 232 235 234 230 229 228 227 225 220 218 220 219 216 212 208 209 212 213 214 214 214 214 214 212 212 212
65 59 52 48 43 39 35 29 27 23 17 15 20 24 22 18 20 18 12 8 6 6 3 0 9 14 9 8 7 356 338 319 307 302 295 283 273 265 261 262 266 270 270 266 257 251 251 252 249 243 235 229 226 223 222 224 225 228 231 234 237 234 229 228 225 224 225 221 218 219 215 210 209 208 209 211 212 214 215 213 214 215 213 211 210
64 59 53 49 43 38 36 34 29 22 17 18 22 26 24 21 23 25 18 9 6 6 1 359 11 18 12 10 10 5 353 335 317 309 303 294 283 271 263 261 261 263 266 266 260 253 248 247 245 242 236 230 227 225 224 225 225 228 231 234 235 231 230 231 228 227 227 221 218 217 208 203 206 208 208 211 212 214 215 214 213 214 213 212 210
61 59 52 49 44 40 38 37 32 29 28 28 29 29 27 26 27 26 21 12 7 7 3 358 6 13 12 11 12 10 6 353 335 322 313 304 296 284 272 266 261 259 261 261 259 255 251 248 245 242 238 232 227 225 224 225 226 227 230 232 231 228 229 229 225 225 225 218 215 218 209 201 205 208 207 210 212 212 214 214 213 213 212 212 211
65 62 55 53 49 43 38 33 32 35 35 33 31 29 27 26 26 25 21 15 8 7 5 359 0 5 8 9 11 14 13 5 350 336 327 316 305 295 282 271 265 262 260 257 256 254 251 250 247 243 240 234 228 225 224 225 226 226 228 230 228 225 224 224 221 221 224 221 218 223 218 206 206 209 208 210 212 212 212 213 212 212 212 210 210
69 63 56 55 51 44 38 31 28 30 30 30 29 26 25 23 22 21 21 17 9 4 5 3 360 2 4 3 4 8 10 6 360 347 333 323 315 305 294 281 270 266 264 261 259 258 255 254 252 247 241 235 230 227 226 225 225 224 226 227 225 220 217 219 218 215 220 222 218 222 221 211 210 211 209 211 213 212 212 211 212 211 209 208 209
67 60 54 53 48 43 38 32 27 23 22 23 21 19 21 22 21 20 22 22 16 7 6 6 3 2 2 1 2 4 3 4 6 360 342 328 321 314 304 292 277 270 268 264 261 261 260 257 254 250 245 237 232 230 229 227 225 223 223 225 222 218 216 216 214 214 221 224 221 222 221 218 219 218 212 212 216 216 213 211 212 211 207 208 209
66 62 56 50 47 43 37 33 29 22 19 17 14 13 14 18 21 22 23 25 23 14 7 7 6 3 1 360 2 3 1 2 8 8 357 340 328 321 314 302 286 273 269 267 265 263 262 259 254 252 249 241 235 234 232 230 227 224 224 225 223 220 218 215 213 217 225 228 227 226 223 222 225 225 219 219 222 223 221 218 216 213 208 211 211
69 66 61 52 47 43 37 33 27 22 20 17 14 13 11 12 18 23 26 27 24 17 9 8 8 5 3 3 3 3 2 1 4 8 6 356 342 330 323 312 295 280 270 267 266 264 263 263 259 254 249 241 237 237 237 233 229 227 228 228 226 221 217 214 214 220 226 229 228 227 225 225 227 226 223 222 222 223 223 222 220 219 216 217 216
73 68 62 56 49 42 37 33 28 24 22 20 17 16 14 12 14 17 21 21 18 14 11 10 10 7 5 6 5 4 5 3 2 6 8 6 358 345 333 320 306 293 280 269 263 260 257 257 257 255 249 241 236 237 239 235 229 228 231 231 227 220 214 213 217 222 225 228 230 228 225 225 225 223 221 221 219 220 222 222 223 225 225 223 221
77 69 63 58 51 44 39 35 31 28 26 23 22 20 18 16 15 14 15 15 15 14 13 13 12 9 8 8 7 7 8 7 7 7 8 10 9 1 351 340 326 312 296 280 268 260 254 252 253 254 251 243 236 234 235 233 227 226 232 233 226 217 213 215 219 223 221 221 224 222 221 224 223 219 217 218 218 220 223 225 227 230 231 231 229
79 72 65 59 55 49 43 39 35 32 29 26 25 24 21 19 18 17 17 18 17 15 15 15 13 11 11 9 10 11 9 9 11 10 9 12 13 11 7 0 350 337 318 298 282 268 259 256 255 254 253 248 241 236 233 230 226 225 229 230 223 213 214 217 218 219 219 217 217 218 222 224 220 215 213 214 215 218 221 224 228 231 233 234 233
79 74 67 61 57 51 47 42 37 33 30 27 26 25 23 22 22 21 20 21 20 18 17 16 14 13 13 12 12 12 10 11 13 13 12 14 14 14 13 10 5 358 347 331 310 285 270 265 262 259 257 255 252 243 234 228 226 225 227 227 222 213 211 213 212 213 217 219 221 224 223 216 209 208 208 208 212 217 222 226 228 231 234 233 233
80 75 68 63 57 53 50 45 38 34 31 28 27 25 24 24 25 24 24 24 23 21 20 18 16 15 15 15 15 14 13 14 14 14 15 15 14 14 13 12 9 5 1 353 340 318 293 280 276 268 260 258 257 249 235 226 223 224 223 221 221 218 212 208 210 212 215 219 221 222 220 210 202 203 205 208 216 221 225 229 231 233 235 233 232
84 78 73 69 62 58 54 47 42 38 34 31 28 27 27 27 27 27 27 27 26 24 21 19 18 17 16 17 17 17 17 16 15 16 16 16 16 16 14 12 8 4 2 359 352 342 327 308 295 283 270 262 258 252 241 228 221 221 220 216 217 220 214 209 211 212 214 218 218 215 215 211 204 201 204 210 217 222 225 228 231 232 231 229 227
89 83 78 74 66 61 56 50 46 41 36 34 31 29 30 29 29 29 28 28 28 26 23 21 19 17 15 14 16 16 16 16 16 16 16 17 18 19 18 17 13 7 3 359 355 348 339 329 317 300 284 271 261 255 247 234 223 217 216 215 216 219 213 207 209 210 209 214 215 209 209 210 205 201 204 210 214 222 226 226 226 225 223 224 224
93 89 82 77 69 63 57 50 46 40 37 35 32 33 34 32 30 29 28 28 28 26 25 23 21 19 16 14 14 15 15 16 15 14 14 15 17 19 20 20 21 18 13 8 6 360 347 339 331 316 299 281 268 259 251 242 230 218 213 214 216 216 212 205 206 208 205 209 214 210 205 205 202 200 206 212 215 220 222 220 220 219 219 220 218
94 90 83 78 70 60 53 47 43 38 36 35 34 36 38 35 32 30 28 27 26 24 24 24 23 23 22 19 18 16 15 16 15 14 13 13 14 17 17 18 22 25 24 21 23 25 18 5 349 330 312 293 277 264 253 247 236 220 212 213 214 214 209 203 204 207 204 207 214 209 199 196 198 200 205 209 211 216 216 211 208 210 213 213 206
93 88 82 75 65 56 51 46 42 39 37 37 37 37 38 36 33 31 28 26 24 23 23 22 23 24 24 24 23 20 19 19 17 16 14 14 15 18 18 18 20 24 27 29 31 35 35 32 28 14 345 318 297 270 250 243 234 218 207 205 209 212 211 205 204 206 207 210 212 204 193 192 196 198 201 203 202 203 203 199 199 204 210 212 204
89 83 78 72 62 57 53 47 44 42 41 40 40 39 37 35 33 30 27 25 24 23 21 21 22 22 22 24 25 25 25 24 22 19 17 15 15 17 19 21 22 23 26 29 32 36 39 40 40 40 39 38 24 321 245 224 214 204 196 198 206 209 208 205 204 208 211 211 206 199 193 193 197 198 199 198 194 193 199 205 207 206 205 205 201
88 79 75 72 66 61 57 51 47 45 44 42 40 39 37 34 31 28 25 23 23 22 21 20 21 21 21 21 22 25 27 26 23 22 21 20 17 16 18 20 23 24 24 24 26 30 35 39 41 42 45 50 54 57 64 99 160 168 171 186 202 205 203 206 211 214 212 206 201 198 196 197 200 200 198 194 192 194 200 203 196 189 188 191 191
90 82 77 74 70 67 63 56 50 47 46 43 40 38 36 33 30 25 22 21 20 19 20 20 19 19 20 20 20 23 25 25 24 23 23 23 20 18 20 21 21 23 24 23 24 25 28 36 42 45 48 51 55 58 58 61 81 108 127 147 170 188 203 212 213 210 205 198 196 198 198 196 196 196 194 194 195 195 191 184 177 176 180 181 179
92 85 79 76 72 70 66 57 50 47 45 44 41 37 35 32 29 25 22 20 18 17 17 18 17 17 19 19 20 21 23 24 26 26 25 25 23 20 21 22 22 23 24 24 26 27 28 32 38 45 50 53 56 57 55 54 61 73 89 108 133 156 176 196 199 193 187 184 185 188 190 189 189 190 191 191 191 186 180 176 176 176 176 174 168
93 85 79 76 72 69 63 55 48 42 41 41 40 37 35 31 28 26 23 21 20 19 18 17 17 17 17 17 19 21 23 24 27 29 27 25 24 23 23 24 25 24 25 26 27 28 29 30 32 38 44 49 56 62 64 63 63 68 75 85 103 120 131 144 151 145 140 142 151 162 169 173 176 180 182 181 177 171 168 167 169 172 173 172 170
87 79 77 75 69 65 59 51 44 39 37 37 36 36 35 31 26 24 22 21 21 21 20 18 17 17 17 16 16 19 21 21 24 30 32 30 28 26 25 29 33 31 27 26 26 28 29 29 29 32 37 43 55 68 76 79 81 85 92 100 108 115 121 128 129 125 123 127 133 141 149 156 160 162 163 161 156 152 148 147 148 151 154 156 159
79 73 77 77 70 66 60 51 45 40 37 36 33 32 31 29 27 23 21 21 22 22 21 20 19 18 19 18 16 18 19 17 17 24 29 30 31 30 28 33 39 41 38 32 29 31 34 33 32 36 41 49 58 67 77 87 95 103 110 117 123 125 128 130 130 127 127 128 131 136 142 148 153 153 152 151 149 148 147 146 145 147 151 154 157
71 68 74 82 79 71 62 55 49 42 38 34 30 26 27 30 28 23 21 23 23 22 21 21 20 20 21 20 19 18 17 16 15 15 17 21 26 29 30 33 38 43 44 41 37 39 44 42 41 45 50 54 57 60 65 74 84 95 105 115 123 127 132 136 136 136 138 138 138 140 142 145 149 153 155 154 154 154 154 152 150 146 142 141 142
74 72 74 79 79 73 66 58 52 44 38 33 29 27 29 32 30 26 24 24 24 23 23 21 20 20 21 20 20 19 18 16 16 14 11 12 17 22 26 30 36 40 43 43 40 41 46 47 45 47 53 58 59 60 61 62 64 68 73 80 87 94 100 106 112 123 142 152 156 158 159 158 161 164 166 165 165 165 164 162 159 154 145 138 131
80 78 78 80 78 74 67 58 51 43 36 31 30 30 33 34 31 28 27 26 25 25 24 21 20 21 21 21 19 19 18 16 14 14 11 9 10 13 16 22 29 33 37 41 40 39 41 46 46 46 50 56 59 60 61 60 59 59 59 61 64 68 73 75 77 82 93 98 102 111 122 130 138 145 150 152 153 156 159 160 159 156 151 144 136
Height
1531 1532 1533 1533 1533 1533 1533 1533 1534 1534 1535 1536 1538 1539 1539 1539 1539 1539 1538 1537 1537 1537 1537 1537 1538 1539 1541 1542 1542 1543 1543 1544 1544 1545 1545 1545 1545 1545 1546 1547 1548 1548 1547 1548 1550 1552 1554 1555 1554 1555 1555 1555 1555 1555 1555 1556 1556 1557 1558 1559 1560 1561 1562 1563 1565 1566 1567 1568 1569 1570 1570 1570 1570 1571 1571 1572 1572 1572 1573 1574 1575 1574 1575 1575 1576
1531 1532 1533 1533 1533 1533 1534 1534 1535 1536 1536 1537 1538 1539 1539 1538 1538 1538 1538 1537 1537 1537 1537 1536 1536 1537 1538 1539 1540 1541 1541 1542 1542 1543 1543 1542 1543 1544 1545 1545 1546 1545 1545 1547 1548 1549 1551 1552 1552 1553 1554 1554 1553 1553 1553 1554 1555 1555 1556 1557 1559 1560 1560 1562 1563 1564 1565 1566 1568 1568 1569 1569 1570 1570 1570 1570 1571 1571 1572 1573 1573 1573 1574 1574 1575
1532 1533 1533 1534 1534 1534 1535 1536 1536 1537 1537 1537 1538 1539 1539 1538 1538 1537 1536 1536 1536 1537 1537 1537 1536 1536 1537 1537 1538 1539 1540 1540 1541 1541 1540 1541 1541 1542 1543 1543 1543 1542 1542 1543 1545 1547 1547 1548 1549 1550 1552 1552 1551 1551 1551 1552 1553 1554 1555 1556 1557 1558 1559 1560 1561 1562 1563 1564 1566 1566 1567 1568 1569 1569 1569 1569 1570 1570 1571 1571 1572 1572 1573 1573 1574
1533 1533 1533 1534 1534 1535 1536 1536 1536 1536 1536 1536 1537 1537 1537 1537 1536 1536 1535 1535 1536 1535 1536 1537 1536 1536 1536 1536 1537 1538 1538 1538 1538 1538 1538 1539 1540 1540 1541 1541 1541 1541 1540 1540 1542 1544 1544 1545 1546 1547 1548 1549 1549 1549 1549 1550 1551 1552 1553 1554 1555 1556 1557 1558 1559 1560 1561 1562 1563 1564 1565 1566 1566 1566 1567 1568 1568 1569 1569 1570 1570 1571 1572 1572 1573
1533 1533 1533 1534 1534 1534 1535 1535 1535 1535 1535 1535 1535 1535 1535 1535 1535 1535 1535 1535 1535 1534 1534 1535 1535 1535 1536 1536 1537 1537 1537 1537 1537 1536 1536 1537 1538 1538 1539 1539 1539 1539 1538 1539 1539 1539 1540 1541 1543 1544 1546 1547 1548 1548 1548 1548 1549 1550 1551 1552 1553 1554 1556 1556 1557 1558 1560 1560 1561 1562 1563 1564 1564 1565 1566 1567 1567 1568 1568 1569 1569 1570 1571 1572 1572
1533 1533 1533 1534 1534 1534 1534 1534 1534 1534 1534 1535 1535 1535 1535 1535 1535 1535 1535 1534 1534 1534 1533 1534 1535 1535 1535 1535 1536 1536 1536 1536 1535 1535 1535 1535 1536 1536 1536 1536 1536 1536 1536 1536 1536 1535 1537 1538 1540 1542 1544 1546 1547 1546 1546 1547 1548 1549 1549 1550 1551 1553 1554 1555 1556 1557 1558 1559 1560 1561 1561 1562 1563 1564 1564 1565 1566 1567 1568 1568 1569 1570 1571 1571 1571
1534 1534 1534 1534 1534 1534 1534 1534 1534 1534 1534 1534 1534 1534 1534 1534 1534 1534 1534 1534 1533 1533 1533 1533 1534 1534 1535 1535 1535 1536 1535 1535 1534 1534 1534 1533 1533 1534 1534 1533 1533 1533 1533 1533 1532 1532 1533 1535 1537 1540 1542 1544 1545 1544 1544 1545 1547 1547 1547 1548 1549 1551 1552 1553 1554 1555 1556 1557 1559 1559 1560 1560 1561 1563 1563 1564 1565 1566 1566 1567 1568 1569 1570 1570 1570
1535 1535 1534 1534 1535 1534 1534 1534 1534 1534 1533 1533 1533 1534 1534 1534 1534 1534 1534 1534 1533 1532 1532 1533 1533 1534 1534 1535 1535 1535 1534 1534 1533 1532 1532 1531 1531 1531 1531 1531 1530 1531 1530 1529 1529 1529 1529 1531 1534 1537 1539 1541 1542 1543 1543 1544 1545 1545 1545 1546 1547 1548 1549 1550 1552 1553 1554 1555 1556 1557 1558 1559 1560 1561 1562 1562 1564 1565 1566 1566 1567 1567 1568 1568 1569
1536 1536 1536 1535 1535 1535 1535 1535 1535 1534 1534 1534 1533 1533 1533 1533 1533 1534 1534 1534 1533 1532 1532 1532 1533 1533 1534 1534 1534 1534 1533 1532 1532 1531 1530 1529 1529 1529 1529 1528 1528 1527 1527 1526 1526 1526 1527 1528 1530 1532 1535 1538 1540 1541 1541 1542 1542 1543 1543 1544 1545 1546 1547 1548 1549 1550 1551 1552 1553 1554 1556 1558 1559 1559 1560 1561 1562 1563 1564 1565 1565 1566 1566 1567 1568
1538 1537 1537 1536 1536 1536 1536 1536 1536 1535 1534 1534 1534 1533 1533 1532 1533 1533 1533 1533 1533 1532 1532 1532 1532 1533 1533 1533 1532 1532 1532 1531 1531 1530 1529 1528 1527 1527 1526 1525 1524 1524 1524 1523 1523 1524 1524 1526 1527 1527 1530 1534 1537 1539 1540 1540 1540 1541 1541 1541 1542 1543 1544 1545 1546 1547 1548 1549 1550 1552 1554 1556 1557 1558 1559 1560 1561 1562 1562 1563 1564 1564 1564 1565 1566
1539 1539 1538 1537 1537 1537 1537 1537 1536 1536 1535 1535 1534 1533 1533 1533 1532 1532 1532 1531 1532 1532 1532 1531 1531 1531 1531 1531 1531 1530 1530 1530 1529 1529 1528 1527 1526 1525 1525 1524 1522 1522 1522 1521 1521 1522 1523 1524 1525 1526 1528 1532 1535 1537 1538 1538 1538 1539 1539 1539 1540 1540 1542 1543 1543 1544 1545 1547 1548 1550 1552 1554 1555 1556 1557 1558 1560 1561 1561 1562 1563 1563 1563 1564 1564
1541 1540 1539 1538 1537 1537 1536 1537 1536 1536 1535 1535 1534 1534 1533 1533 1532 1532 1531 1531 1531 1531 1531 1530 1530 1530 1530 1530 1529 1529 1529 1528 1527 1527 1526 1525 1524 1523 1523 1523 1522 1521 1521 1521 1520 1521 1522 1523 1524 1525 1527 1530 1532 1534 1535 1536 1537 1537 1536 1537 1537 1538 1539 1540 1540 1541 1543 1544 1546 1548 1550 1552 1553 1554 1555 1557 1558 1560 1560 1561 1561 1562 1563 1564 1563
1542 1541 1540 1538 1537 1537 1537 1537 1536 1536 1536 1535 1534 1534 1533 1532 1531 1531 1530 1530 1530 1530 1530 1530 1530 1529 1529 1528 1528 1527 1527 1526 1525 1525 1524 1523 1523 1522 1522 1522 1521 1520 1520 1520 1520 1520 1520 1521 1522 1523 1524 1526 1528 1530 1531 1533 1534 1534 1534 1535 1535 1535 1536 1536 1537 1538 1539 1541 1543 1545 1547 1550 1551 1553 1554 1555 1557 1558 1559 1559 1560 1561 1562 1563 1563
1543 1541 1540 1538 1538 1538 1538 1538 1537 1537 1536 1535 1534 1534 1533 1532 1531 1530 1530 1529 1530 1529 1529 1529 1528 1528 1528 1527 1526 1526 1525 1524 1524 1523 1522 1522 1522 1521 1521 1521 1520 1519 1519 1519 1519 1519 1518 1519 1520 1521 1522 1523 1524 1526 1528 1530 1531 1531 1532 1532 1533 1533 1533 1534 1535 1536 1537 1538 1540 1541 1544 1547 1549 1550 1552 1554 1555 1557 1558 1558 1559 1560 1561 1562 1562
1545 1543 1541 1540 1539 1539 1539 1539 1538 1538 1537 1536 1535 1535 1533 1532 1531 1530 1530 1529 1529 1529 1528 1527 1527 1526 1525 1525 1524 1524 1523 1523 1522 1522 1521 1521 1520 1520 1520 1520 1519 1519 1518 1518 1518 1518 1517 1517 1517 1518 1519 1520 1521 1523 1525 1527 1527 1528 1529 1530 1531 1531 1532 1533 1533 1534 1534 1536 1537 1539 1542 1545 1546 1548 1550 1552 1554 1555 1556 1557 1558 1559 1559 1560 1561
1546 1544 1542 1542 1541 1541 1541 1540 1539 1539 1538 1537 1536 1536 1535 1534 1533 1531 1531 1530 1529 1528 1527 1527 1526 1525 1524 1523 1523 1522 1522 1522 1522 1521 1520 1520 1519 1519 1518 1518 1518 1517 1517 1517 1517 1517 1516 1516 1515 1516 1516 1517 1519 1520 1522 1524 1524 1525 1527 1528 1529 1529 1529 1531 1531 1531 1532 1534 1535 1537 1540 1543 1545 1546 1548 1550 1552 1553 1554 1555 1556 1557 1557 1558 1559
1547 1546 1544 1544 1543 1542 1542 1541 1540 1539 1538 1538 1537 1536 1535 1534 1533 1532 1531 1530 1529 1528 1527 1526 1526 1524 1523 1523 1522 1521 1521 1520 1520 1519 1519 1518 1517 1517 1517 1516 1516 1516 1515 1515 1515 1515 1515 1515 1514 1514 1514 1515 1516 1518 1519 1520 1521 1522 1523 1524 1526 1527 1527 1528 1528 1529 1531 1532 1533 1535 1538 1540 1542 1544 1546 1548 1549 1551 1552 1553 1554 1555 1556 1556 1556
1548 1546 1545 1544 1543 1543 1542 1541 1541 1540 1538 1538 1537 1537 1536 1534 1533 1532 1530 1529 1529 1528 1527 1526 1525 1524 1522 1521 1521 1520 1519 1518 1518 1517 1517 1516 1516 1516 1515 1514 1514 1514 1513 1513 1513 1513 1513 1513 1513 1512 1513 1513 1514 1515 1517 1518 1518 1519 1520 1522 1523 1524 1525 1526 1526 1527 1529 1530 1531 1533 1535 1537 1540 1541 1543 1544 1546 1548 1550 1551 1552 1553 1554 1554 1554
1548 1547 1546 1545 1544 1543 1542 1542 1541 1540 1539 1539 1538 1538 1536 1534 1533 1531 1530 1529 1528 1527 1526 1525 1524 1523 1521 1520 1519 1519 1518 1517 1516 1515 1515 1514 1514 1514 1513 1513 1512 1512 1512 1511 1511 1512 1512 1512 1511 1511 1511 1511 1512 1513 1514 1515 1516 1517 1518 1519 1521 1522 1523 1524 1525 1525 1527 1528 1529 1531 1533 1536 1538 1539 1541 1542 1544 1545 1547 1549 1550 1551 1552 1552 1552
1548 1548 1547 1545 1545 1544 1543 1543 1542 1541 1541 1539 1539 1538 1536 1534 1533 1531 1530 1529 1527 1527 1526 1525 1523 1522 1520 1519 1518 1517 1516 1515 1514 1514 1514 1513 1512 1512 1511 1511 1511 1510 1510 1510 1510 1510 1510 1510 1510 1510 1509 1509 1510 1511 1511 1512 1513 1515 1516 1517 1518 1519 1520 1521 1523 1524 1525 1527 1528 1529 1532 1534 1535 1537 1539 1541 1542 1543 1544 1546 1548 1548 1549 1550 1550
1549 1548 1547 1546 1546 1545 1544 1544 1544 1543 1542 1541 1539 1538 1535 1534 1532 1531 1530 1529 1528 1527 1525 1524 1523 1521 1519 1518 1517 1516 1515 1514 1513 1512 1512 1512 1511 1510 1509 1509 1509 1509 1509 1509 1509 1508 1508 1509 1508 1508 1508 1508 1508 1509 1509 1510 1511 1512 1513 1514 1516 1517 1518 1519 1521 1522 1524 1525 1526 1527 1529 1530 1532 1535 1537 1539 1540 1541 1542 1543 1545 1546 1547 1548 1548
1550 1549 1548 1547 1546 1545 1545 1545 1545 1545 1543 1542 1540 1537 1535 1533 1532 1531 1530 1529 1528 1527 1525 1524 1522 1520 1519 1517 1516 1515 1513 1512 1511 1511 1510 1510 1509 1508 1508 1507 1507 1507 1507 1507 1507 1506 1506 1506 1506 1506 1506 1506 1506 1506 1508 1509 1509 1510 1511 1512 1514 1515 1516 1518 1520 1521 1521 1522 1523 1525 1526 1527 1529 1532 1534 1536 1537 1539 1540 1541 1543 1544 1545 1546 1546
1551 1549 1548 1547 1547 1547 1547 1547 1547 1546 1544 1542 1539 1537 1535 1533 1532 1531 1531 1529 1528 1527 1526 1524 1522 1520 1518 1516 1515 1513 1512 1511 1509 1509 1508 1507 1507 1506 1506 1506 1505 1505 1505 1505 1505 1505 1504 1504 1504 1504 1504 1504 1504 1504 1505 1506 1507 1508 1509 1510 1511 1513 1514 1516 1517 1519 1519 1520 1521 1523 1524 1525 1527 1529 1531 1533 1535 1537 1538 1539 1541 1542 1543 1544 1544
1551 1549 1549 1548 1548 1548 1549 1549 1548 1548 1546 1543 1540 1538 1536 1535 1534 1532 1532 1531 1529 1528 1527 1525 1522 1520 1518 1516 1514 1512 1511 1509 1508 1507 1506 1505 1505 1504 1504 1504 1503 1503 1503 1503 1503 1503 1503 1502 1502 1501 1501 1501 1501 1502 1503 1504 1505 1506 1507 1508 1509 1510 1512 1512 1514 1516 1517 1518 1519 1520 1522 1523 1525 1527 1529 1531 1533 1534 1536 1537 1539 1540 1541 1542 1543
1550 1549 1550 1549 1549 1550 1550 1551 1550 1549 1546 1544 1541 1540 1538 1537 1535 1534 1533 1532 1529 1529 1528 1525 1522 1521 1519 1516 1514 1512 1510 1508 1507 1505 1504 1504 1503 1502 1502 1501 1501 1500 1501 1501 1501 1500 1500 1500 1499 1499 1499 1499 1499 1500 1501 1501 1503 1504 1505 1506 1507 1507 1508 1509 1510 1513 1514 1516 1517 1518 1519 1521 1522 1524 1527 1528 1530 1532 1533 1535 1536 1538 1539 1540 1541
1550 1550 1551 1550 1551 1552 1551 1552 1550 1548 1546 1544 1542 1541 1540 1538 1537 1535 1534 1532 1530 1530 1528 1525 1522 1521 1519 1517 1514 1512 1510 1508 1506 1504 1503 1502 1501 1500 1500 1499 1499 1498 1498 1499 1498 1498 1497 1497 1496 1496 1496 1496 1496 1497 1498 1499 1500 1501 1502 1503 1505 1505 1506 1507 1508 1510 1513 1514 1514 1515 1516 1518 1520 1522 1524 1526 1527 1529 1531 1532 1534 1535 1536 1538 1538
1551 1551 1552 1552 1554 1554 1553 1552 1550 1548 1546 1545 1543 1542 1541 1539 1537 1536 1535 1532 1531 1530 1528 1526 1523 1521 1519 1517 1515 1512 1510 1508 1506 1504 1502 1501 1499 1498 1497 1497 1496 1496 1496 1495 1495 1495 1495 1494 1494 1494 1493 1494 1494 1495 1496 1496 1497 1499 1500 1501 1502 1503 1504 1505 1506 1508 1510 1511 1511 1513 1515 1516 1518 1520 1522 1523 1524 1526 1527 1529 1531 1532 1534 1535 1536
1552 1552 1553 1554 1555 1554 1554 1552 1550 1549 1547 1546 1545 1544 1542 1541 1539 1537 1535 1533 1531 1529 1528 1526 1524 1522 1519 1517 1515 1513 1510 1508 1506 1504 1502 1500 1498 1496 1495 1494 1494 1493 1493 1492 1492 1492 1491 1491 1491 1491 1491 1493 1494 1494 1494 1494 1495 1496 1498 1498 1499 1500 1502 1503 1505 1507 1508 1509 1510 1512 1513 1514 1516 1517 1519 1520 1521 1523 1524 1526 1527 1528 1529 1531 1532
1553 1554 1555 1555 1556 1555 1554 1553 1552 1551 1549 1548 1547 1545 1543 1542 1539 1538 1536 1533 1532 1530 1529 1527 1525 1522 1520 1517 1515 1512 1511 1509 1506 1503 1501 1499 1497 1495 1493 1492 1491 1490 1490 1490 1489 1489 1488 1488 1488 1488 1489 1490 1492 1493 1492 1492 1493 1494 1495 1496 1496 1498 1499 1500 1503 1505 1506 1507 1508 1509 1511 1512 1513 1515 1516 1517 1519 1521 1522 1523 1524 1524 1525 1526 1527
1555 1557 1557 1557 1556 1556 1555 1554 1553 1552 1551 1549 1548 1546 1545 1542 1540 1538 1536 1534 1532 1531 1529 1528 1525 1523 1520 1518 1515 1513 1510 1508 1505 1503 1500 1497 1495 1493 1491 1490 1488 1488 1487 1487 1487 1486 1486 1486 1485 1486 1486 1487 1488 1489 1489 1490 1491 1492 1493 1493 1494 1495 1497 1498 1499 1502 1503 1504 1505 1507 1508 1510 1511 1513 1515 1516 1517 1519 1520 1521 1522 1522 1523 1524 1525
1558 1558 1559 1558 1557 1556 1556 1555 1554 1553 1551 1550 1549 1547 1545 1543 1540 1538 1536 1534 1533 1531 1530 1528 1526 1524 1521 1518 1515 1513 1510 1507 1504 1502 1499 1496 1494 1492 1490 1488 1486 1485 1485 1484 1484 1484 1483 1483 1483 1483 1483 1484 1485 1486 1487 1488 1490 1491 1491 1491 1491 1492 1493 1494 1496 1498 1500 1502 1503 1505 1506 1507 1509 1511 1513 1514 1515 1516 1517 1519 1520 1521 1522 1523 1524
1559 1560 1559 1559 1558 1557 1556 1555 1554 1553 1552 1550 1549 1548 1546 1544 1542 1539 1537 1536 1534 1533 1531 1529 1527 1525 1521 1518 1516 1513 1510 1507 1504 1501 1498 1495 1493 1490 1488 1486 1485 1483 1482 1481 1481 1480 1480 1480 1480 1480 1480 1481 1482 1483 1485 1486 1488 1489 1489 1488 1488 1489 1489 1491 1493 1496 1498 1500 1501 1502 1504 1505 1507 1508 1510 1511 1513 1514 1515 1516 1518 1519 1520 1521 1522
1560 1560 1560 1559 1559 1557 1557 1556 1555 1554 1553 1551 1550 1549 1547 1545 1543 1541 1539 1537 1536 1534 1532 1530 1528 1525 1522 1519 1516 1513 1510 1507 1504 1501 1498 1496 1492 1489 1487 1485 1483 1482 1480 1479 1478 1477 1477 1476 1476 1477 1477 1478 1479 1480 1481 1483 1484 1486 1486 1485 1486 1486 1486 1488 1491 1493 1496 1498 1499 1501 1502 1503 1504 1506 1508 1509 1511 1512 1513 1515 1516 1517 1518 1519 1520
1560 1560 1560 1560 1559 1559 1558 1557 1556 1554 1553 1552 1551 1550 1548 1546 1544 1542 1540 1538 1537 1535 1532 1530 1528 1525 1523 1520 1517 1514 1511 1508 1505 1502 1499 1496 1493 1489 1487 1484 1482 1480 1478 1476 1475 1474 1473 1473 1473 1473 1474 1475 1475 1476 1477 1480 1481 1482 1482 1482 1483 1484 1484 1486 1489 1491 1494 1496 1497 1499 1499 1501 1503 1505 1506 1508 1509 1511 1512 1513 1514 1515 1516 1516 1518
1561 1561 1561 1560 1560 1560 1558 1558 1557 1555 1554 1553 1552 1551 1549 1547 1545 1543 1541 1539 1538 1536 1533 1531 1529 1526 1524 1521 1518 1515 1512 1509 1506 1503 1499 1496 1493 1490 1487 1484 1481 1479 1477 1475 1473 1472 1471 1470 1470 1470 1471 1471 1472 1472 1474 1476 1477 1479 1480 1481 1482 1482 1482 1484 1487 1490 1492 1494 1495 1496 1497 1499 1501 1503 1504 1506 1508 1509 1510 1511 1512 1513 1513 1514 1515
1561 1562 1561 1561 1561 1560 1559 1558 1557 1556 1555 1554 1553 1552 1550 1548 1546 1545 1543 1541 1539 1537 1534 1532 1529 1527 1524 1522 1519 1516 1513 1510 1507 1503 1500 1497 1494 1491 1487 1484 1482 1479 1476 1474 1472 1470 1469 1468 1468 1468 1468 1468 1468 1469 1470 1472 1474 1476 1478 1480 1481 1481 1481 1482 1485 1488 1490 1492 1493 1494 1495 1497 1499 1501 1503 1505 1507 1508 1509 1510 1510 1510 1511 1512 1514
1562 1562 1562 1562 1561 1561 1560 1559 1558 1557 1557 1555 1554 1553 1551 1549 1547 1546 1544 1542 1540 1538 1535 1533 1530 1528 1525 1523 1520 1517 1515 1512 1508 1505 1502 1498 1495 1492 1489 1486 1483 1480 1477 1475 1473 1470 1469 1467 1466 1466 1465 1465 1465 1466 1467 1469 1471 1473 1475 1477 1479 1480 1480 1481 1484 1486 1488 1489 1491 1493 1495 1496 1497 1500 1502 1504 1506 1506 1507 1508 1508 1509 1510 1511 1512
1563 1563 1563 1562 1562 1561 1561 1560 1559 1559 1557 1556 1555 1554 1552 1550 1548 1547 1545 1543 1541 1539 1537 1534 1532 1529 1527 1524 1521 1519 1516 1513 1510 1507 1504 1501 1498 1495 1492 1488 1486 1483 1480 1477 1474 1472 1470 1467 1466 1464 1464 1463 1463 1463 1464 1466 1468 1470 1471 1473 1476 1478 1479 1480 1482 1484 1485 1487 1490 1492 1494 1495 1497 1499 1501 1503 1504 1505 1505 1506 1506 1507 1508 1509 1510
1563 1563 1563 1563 1562 1562 1562 1561 1560 1560 1558 1558 1556 1555 1553 1551 1549 1548 1546 1544 1542 1540 1538 1536 1534 1531 1529 1526 1523 1520 1518 1515 1512 1510 1507 1504 1501 1498 1495 1492 1489 1486 1483 1480 1477 1474 1471 1469 1467 1465 1463 1462 1462 1462 1462 1463 1465 1466 1468 1470 1473 1476 1476 1477 1480 1482 1483 1485 1487 1489 1491 1494 1496 1498 1500 1501 1503 1503 1504 1504 1505 1506 1507 1508 1509
1563 1563 1563 1563 1563 1563 1562 1562 1561 1560 1559 1558 1557 1555 1554 1552 1550 1549 1547 1545 1544 1542 1540 1538 1536 1533 1531 1528 1524 1522 1519 1517 1514 1512 1509 1506 1503 1500 1498 1495 1492 1489 1486 1483 1480 1477 1474 1471 1468 1466 1464 1462 1461 1460 1461 1462 1462 1464 1465 1467 1470 1473 1474 1474 1477 1479 1480 1482 1485 1487 1490 1492 1494 1496 1498 1500 1501 1502 1503 1504 1504 1505 1506 1507 1508
1563 1563 1564 1564 1564 1563 1563 1562 1562 1561 1560 1559 1558 1556 1554 1553 1551 1549 1548 1546 1545 1543 1541 1540 1538 1535 1533 1530 1526 1524 1521 1519 1516 1514 1511 1508 1505 1503 1500 1497 1495 1492 1490 1487 1484 1481 1478 1475 1471 1468 1466 1464 1462 1461 1460 1461 1462 1462 1464 1466 1469 1471 1472 1473 1475 1477 1479 1481 1484 1487 1488 1490 1492 1494 1496 1498 1500 1501 1502 1503 1504 1505 1506 1507 1508
1564 1564 1564 1565 1564 1564 1564 1563 1562 1562 1560 1559 1558 1556 1554 1553 1552 1550 1549 1548 1546 1545 1543 1541 1539 1537 1534 1532 1529 1526 1523 1520 1518 1516 1513 1511 1508 1505 1502 1499 1497 1494 1492 1490 1488 1485 1482 1479 1476 1473 1469 1466 1465 1463 1462 1463 1463 1462 1463 1466 1468 1470 1471 1472 1474 1476 1479 1481 1484 1486 1487 1489 1491 1493 1495 1496 1498 1500 1501 1502 1503 1504 1506 1507 1508
1565 1565 1565 1565 1565 1565 1564 1564 1563 1562 1561 1559 1558 1557 1555 1554 1553 1551 1550 1549 1547 1546 1544 1542 1540 1538 1535 1533 1531 1528 1525 1523 1520 1518 1515 1513 1510 1508 1505 1502 1499 1496 1494 1492 1490 1488 1486 1483 1480 1477 1474 1471 1468 1467 1467 1467 1465 1462 1462 1466 1469 1470 1471 1473 1474 1477 1479 1481 1483 1485 1486 1487 1489 1491 1493 1495 1497 1499 1500 1502 1503 1504 1505 1506 1507
1566 1566 1566 1565 1565 1565 1564 1564 1563 1562 1561 1560 1559 1558 1556 1555 1554 1553 1551 1550 1548 1547 1545 1543 1541 1539 1537 1535 1533 1530 1528 1525 1523 1520 1518 1515 1513 1510 1508 1505 1502 1499 1496 1494 1492 1490 1489 1486 1484 1482 1480 1477 1474 1472 1472 1471 1467 1463 1463 1466 1469 1471 1473 1474 1476 1478 1479 1480 1482 1483 1485 1486 1488 1490 1492 1494 1496 1497 1499 1501 1502 1503 1504 1505 1507
1566 1566 1566 1566 1565 1565 1564 1564 1563 1562 1561 1560 1559 1558 1557 1556 1555 1554 1552 1551 1549 1548 1546 1544 1542 1540 1538 1536 1534 1532 1530 1527 1525 1523 1520 1518 1516 1513 1510 1507 1505 1503 1500 1497 1495 1493 1491 1490 1488 1487 1484 1482 1479 1477 1475 1474 1471 1467 1466 1468 1470 1472 1474 1476 1477 1479 1480 1480 1481 1482 1483 1485 1487 1489 1491 1493 1495 1496 1497 1499 1500 1501 1502 1504 1505
1566 1566 1566 1566 1566 1565 1565 1564 1563 1562 1561 1560 1559 1559 1558 1557 1556 1554 1553 1551 1550 1548 1547 1545 1543 1541 1540 1538 1536 1533 1531 1529 1527 1525 1522 1520 1518 1516 1513 1509 1508 1506 1504 1502 1499 1496 1494 1493 1491 1490 1488 1486 1484 1481 1479 1477 1475 1473 1472 1472 1474 1475 1477 1478 1479 1480 1481 1481 1481 1482 1483 1484 1486 1488 1491 1493 1495 1496 1497 1499 1500 1501 1502 1503 1505
1566 1566 1566 1566 1566 1565 1565 1564 1563 1562 1561 1560 1560 1559 1558 1557 1556 1555 1553 1552 1550 1549 1547 1546 1544 1542 1541 1539 1537 1534 1533 1531 1529 1526 1524 1522 1521 1519 1516 1512 1510 1508 1507 1505 1503 1501 1498 1496 1494 1492 1491 1489 1487 1485 1483 1480 1479 1478 1477 1478 1478 1479 1480 1481 1482 1483 1483 1483 1483 1483 1483 1484 1486 1489 1491 1493 1495 1497 1499 1500 1502 1502 1503 1504 1506
1566 1566 1566 1566 1566 1565 1565 1564 1563 1562 1562 1561 1560 1559 1558 1558 1557 1555 1554 1552 1551 1550 1548 1547 1545 1543 1542 1540 1538 1536 1534 1532 1531 1529 1526 1524 1523 1521 1519 1516 1513 1511 1509 1508 1507 1504 1502 1500 1498 1495 1494 1492 1490 1488 1486 1484 1483 1482 1481 1481 1481 1481 1482 1483 1484 1485 1486 1486 1486 1485 1485 1486 1487 1489 1491 1493 1494 1496 1498 1501 1503 1503 1503 1504 1506
1566 1566 1565 1565 1565 1565 1565 1564 1563 1563 1562 1561 1560 1559 1558 1558 1557 1556 1554 1553 1552 1550 1549 1548 1546 1544 1543 1541 1540 1538 1536 1534 1532 1530 1528 1526 1525 1523 1521 1519 1517 1515 1513 1511 1509 1507 1506 1504 1502 1499 1497 1495 1493 1491 1490 1489 1488 1487 1486 1485 1485 1485 1485 1485 1486 1487 1488 1488 1489 1489 1489 1489 1490 1492 1492 1493 1494 1496 1497 1499 1502 1503 1503 1504 1505
1566 1566 1565 1565 1565 1565 1565 1564 1563 1563 1562 1561 1560 1559 1558 1558 1557 1556 1555 1553 1552 1551 1550 1549 1547 1545 1544 1543 1541 1539 1537 1536 1534 1532 1530 1528 1527 1525 1524 1522 1520 1518 1516 1514 1512 1510 1508 1507 1506 1503 1501 1499 1497 1496 1495 1494 1493 1492 1491 1490 1489 1488 1488 1488 1489 1489 1489 1490 1490 1491 1491 1492 1493 1494 1494 1495 1496 1497 1498 1500 1502 1503 1504 1505 1506
1566 1566 1566 1565 1565 1565 1565 1564 1564 1563 1563 1562 1561 1560 1559 1558 1557 1557 1556 1554 1553 1552 1551 1549 1548 1547 1545 1544 1542 1541 1539 1537 1535 1534 1532 1530 1528 1527 1526 1524 1523 1521 1519 1517 1515 1513 1512 1510 1508 1507 1505 1503 1501 1500 1500 1499 1497 1496 1495 1494 1493 1492 1492 1491 1491 1491 1491 1491 1492 1492 1493 1493 1494 1495 1495 1496 1497 1498 1499 1501 1502 1504 1505 1506 1507